AEROCUBE 7B (OCSD B) (43042 NORAD) Tracking and Keplerian Element Data

This shows tracking and keplerian element data for the satellite.

Feedback or suggestion? Click here.




ElementValue
Catalog43042
NameAEROCUBE 7B (OCSD B)
Epoch Orbit7190
Epoch Day77.73433481
Epoch Year2019
RAAN142.2943
Inclination51.6383
Eccentricity0.0004578
Argument of Perigee177.258
Mean Anonmoly182.843
Mean Motion15.40585735
Decay Rate2.572E-05
L11 43042U 17071F 19077.73433481 .00002572 00000-0 72014-4 0 9990
L22 43042 51.6383 142.2943 0004578 177.2580 182.8430 15.40585735 71906

Live tracking and technical data element details for AEROCUBE 7B (OCSD B) (NORAD 43042). AEROCUBE 7B (OCSD B) can be tracked NOW for your location showing map with azimuth and elevation plus other details from your city location.

Track the satellite on the map from your city or location and see movement details for azimuth, elevation, latitude, longitude, range, height, and movement on the map or in text.







IsCatalogInMostPopularTable: catalog: 43042, numindb: 227
Update: records affected: 1



GetName: 43042 AEROCUBE 7B (OCSD B)

Hit Count: updated at: Wed, 20 Mar 2019 05:55:14 GMT